Atlanta, GA

4:18 PM EST on December 06, 2019 (GMT -0500)
The Hartsfield Atlanta International

Weather History for KATL - October, 2019

Change the Weather History Date:

Monday, October 14, 2019

  Actual Average Record
Temperature  
Mean Temperature 66 °F 64 °F  
Max Temperature 79 °F 73 °F 87 °F (1940)
Min Temperature 54 °F 55 °F 38 °F (1979)
Degree Days  
Heating Degree Days 0 3  
Month to date heating degree days 30  
Since 1 July heating degree days 41  
Cooling Degree Days 1 2  
Month to date cooling degree days 44  
Year to date cooling degree days 1849  
Growing Degree Days 16 (Base 50)    
Moisture  
Dew Point 52 °F    
Average Humidity 64    
Maximum Humidity 93    
Minimum Humidity 32    
Precipitation  
Precipitation 0.00 in 0.11 in 2.54 in (2014)
Month to date precipitation 1.71  
Year to date precipitation 40.01  
Sea Level Pressure  
Sea Level Pressure 30.08 in    
Wind  
Wind Speed 5 mph ()    
Max Wind Speed 8 mph    
Max Gust Speed 20 mph    
Visibility 9.8 miles    
Events      
T = Trace of Precipitation, MM = Missing Value Source: Averaged Metar Reports

Daily Weather History Graph

Daily Weather History Graph

Search for Another Location

Airport or City:

Astronomy

Oct. 14, 2019 Rise Set
Actual Time 7:41 AM EDT 7:05 PM EDT
Civil Twilight 7:16 AM EDT 7:30 PM EDT
Nautical Twilight 6:47 AM EDT 7:59 PM EDT
Astronomical Twilight 6:18 AM EDT 8:28 PM EDT
Moon 7:55 PM EDT (10/14) 8:13 AM EDT (10/14)
Length of Visible Light 12h 13m
Length of Day
11h 23m
Waxing Gibbous, 99% of the Moon is Illuminated
Oct 14
Waxing Gibbous
Oct 21
Last Quarter
Oct 27
New
Nov 4
First Quarter
Nov 12
Full

Hourly Weather History & Observations

Time (EDT) Temp. Dew Point Humidity Pressure Visibility Wind Dir Wind Speed Gust Speed Precip Events Conditions
12:52 AM 60.1 °F 57.0 °F 90% 30.07 in 10.0 mi West 6.9 mph - N/A   Mostly Cloudy
1:52 AM 60.1 °F 55.9 °F 86% 30.04 in 10.0 mi Calm Calm - N/A   Mostly Cloudy
2:52 AM 60.1 °F 55.9 °F 86% 30.05 in 10.0 mi NW 6.9 mph - N/A   Partly Cloudy
3:28 AM 59.0 °F 55.9 °F 90% 30.05 in 10.0 mi NNW 4.6 mph - N/A   Partly Cloudy
3:52 AM 59.0 °F 55.9 °F 90% 30.05 in 7.0 mi NNW 5.8 mph - N/A   Mostly Cloudy
4:27 AM 57.9 °F 55.9 °F 93% 30.06 in 9.0 mi WNW 3.5 mph - N/A   Scattered Clouds
4:52 AM 57.9 °F 55.0 °F 90% 30.06 in 10.0 mi NW 6.9 mph - N/A   Scattered Clouds
5:52 AM 57.0 °F 53.1 °F 87% 30.08 in 10.0 mi NNW 8.1 mph - N/A   Mostly Cloudy
6:52 AM 55.0 °F 48.0 °F 77% 30.09 in 10.0 mi West 5.8 mph - N/A   Scattered Clouds
7:52 AM 54.0 °F 48.0 °F 80% 30.10 in 10.0 mi WNW 5.8 mph - N/A   Partly Cloudy
8:52 AM 55.9 °F 46.9 °F 72% 30.12 in 10.0 mi WNW 8.1 mph - N/A   Scattered Clouds
10:52 AM 61.0 °F 50.0 °F 67% 30.15 in 10.0 mi WNW 6.9 mph - N/A   Mostly Cloudy
11:52 AM 66.9 °F 48.9 °F 52% 30.13 in 10.0 mi NW 8.1 mph - N/A   Partly Cloudy
1:52 PM 73.9 °F 42.1 °F 32% 30.10 in 10.0 mi Variable 3.5 mph - N/A   Mostly Cloudy
2:52 PM 77.0 °F 48.0 °F 36% 30.09 in 10.0 mi NW 8.1 mph - N/A   Mostly Cloudy
3:52 PM 78.1 °F 50.0 °F 37% 30.07 in 10.0 mi Variable 4.6 mph - N/A   Mostly Cloudy
4:52 PM 78.1 °F 52.0 °F 40% 30.07 in 10.0 mi NNW 6.9 mph - N/A   Mostly Cloudy
5:06 PM 75.9 °F 52.0 °F 43% 30.08 in 10.0 mi NNW 8.1 mph 19.6 mph N/A   Mostly Cloudy
5:52 PM 75.9 °F 52.0 °F 43% 30.06 in 10.0 mi NNW 6.9 mph - N/A   Mostly Cloudy
6:52 PM 75.0 °F 52.0 °F 44% 30.08 in 10.0 mi North 6.9 mph - N/A   Mostly Cloudy
7:52 PM 73.0 °F 52.0 °F 48% 30.09 in 10.0 mi NNW 5.8 mph - N/A   Mostly Cloudy
8:52 PM 72.0 °F 52.0 °F 49% 30.09 in 10.0 mi NNW 3.5 mph - N/A   Mostly Cloudy
9:52 PM 72.0 °F 51.1 °F 48% 30.10 in 10.0 mi NW 3.5 mph - N/A   Overcast
10:52 PM 71.1 °F 53.1 °F 53% 30.10 in 10.0 mi NW 6.9 mph - N/A   Overcast
11:52 PM 69.1 °F 54.0 °F 58% 30.10 in 10.0 mi Calm Calm - N/A   Overcast